Weather reports worldwide

Advertisment
Spadeadam, United Kingdom (3224): temperature & dewpoint: 30.07.2020 03:00:00 - 05.08.2020 03:00:00 (BST)Spadeadam, United Kingdom (3224): temperature -20cm: 30.07.2020 03:00:00 - 05.08.2020 03:00:00 (BST)Spadeadam, United Kingdom (3224): wind speed & gusts: 30.07.2020 03:00:00 - 05.08.2020 03:00:00 (BST)Spadeadam, United Kingdom (3224): wind direction: 30.07.2020 03:00:00 - 05.08.2020 03:00:00 (BST)Spadeadam, United Kingdom (3224): reduced air pressure: 30.07.2020 03:00:00 - 05.08.2020 03:00:00 (BST)Spadeadam, United Kingdom (3224): visibility: 30.07.2020 03:00:00 - 05.08.2020 03:00:00 (BST)Spadeadam, United Kingdom (3224): precipitation: 30.07.2020 03:00:00 - 05.08.2020 03:00:00 (BST)
Date & Time tt [°C] td [°C] tt -20cm [°C] ff [km/h] ff [kn] fx [km/h] fx [kn] dd ppp [hPa] vv [km] rr [mm]
05.08.2020 03:00:00 14,9 14,6 - 39 21 70 38 WSW 1001,5 13 0,0
05.08.2020 02:00:00 15,0 14,5 - 44 24 67 36 WSW 1001,2 11 0,0
05.08.2020 01:00:00 15,0 14,3 - 44 24 65 35 WSW 1001,1 10 0,0
05.08.2020 00:00:00 14,5 14,4 - 34 18 48 26 SW 1001,2 10 0,2
04.08.2020 23:00:00 14,3 14,2 - 28 15 50 27 SW 1001,5 2,9 2,8
04.08.2020 22:00:00 14,3 14,2 - 29 16 52 28 SW 1001,9 3,6 4,0
04.08.2020 21:00:00 14,5 14,2 - 34 18 52 28 SW 1002,3 3,6 1,6
04.08.2020 20:00:00 14,8 14,3 - 37 20 52 28 SW 1002,5 3,2 3,4
04.08.2020 19:00:00 15,2 14,2 - 37 20 57 31 SW 1003,0 3,7 0,8
04.08.2020 18:00:00 15,9 14,0 - 35 19 59 32 SSW 1003,1 50 0,0
04.08.2020 17:00:00 15,3 13,8 - 34 18 57 31 SSW 1003,8 45 0,0
04.08.2020 16:00:00 14,3 13,0 - 31 17 50 27 SSW 1004,8 10 0,0
04.08.2020 15:00:00 12,9 12,0 - 39 21 57 31 SSW 1006,0 10 0,0
04.08.2020 14:00:00 13,0 11,4 - 39 21 59 32 SW 1006,8 50 0,0
04.08.2020 13:00:00 12,1 11,3 - 29 16 52 28 SSW 1007,7 50 0,6
04.08.2020 12:00:00 12,1 11,7 - 31 17 - - SSW 1009,0 3,0 0,4
04.08.2020 11:00:00 11,3 10,7 - 26 14 - - SSW 1009,9 10 0,4
04.08.2020 10:00:00 10,9 10,5 14,9 26 14 - - SSW 1010,8 10 1,0
04.08.2020 09:00:00 10,6 10,1 - 16 9 - - SSW 1011,5 12 0,8
04.08.2020 08:00:00 10,5 9,8 - 21 11 - - SSW 1011,9 19 0,6
04.08.2020 07:00:00 9,3 8,2 - 11 6 - - S 1012,8 27 0,0
04.08.2020 06:00:00 7,2 5,8 - 5 3 - - SSE 1013,8 45 0,0
04.08.2020 05:00:00 7,2 6,4 - 8 4 - - SSE 1014,4 50 0,0
04.08.2020 04:00:00 7,6 7,2 - 5 3 - - SW 1015,0 40 0,0
04.08.2020 03:00:00 8,1 7,8 - 4 2 - - SSW 1015,6 15 0,0
04.08.2020 02:00:00 8,0 7,6 - 8 4 - - W 1016,0 4,1 0,0
04.08.2020 01:00:00 8,0 7,5 - 8 4 65 35 WSW 1016,5 12 0,0
04.08.2020 00:00:00 8,8 7,9 - 9 5 - - W 1016,6 27 0,0
03.08.2020 23:00:00 9,1 6,1 - 8 4 - - W 1016,9 45 0,0
03.08.2020 22:00:00 9,7 6,2 - 8 4 - - W 1016,5 50 0,0
03.08.2020 21:00:00 11,9 7,3 - 13 7 - - W 1016,1 50 0,0
03.08.2020 20:00:00 12,1 9,3 - 13 7 - - WSW 1015,8 50 0,0
03.08.2020 19:00:00 12,7 8,7 - 18 10 - - W 1015,6 50 0,0
03.08.2020 18:00:00 12,7 9,0 - 15 8 - - W 1015,6 50 0,0
03.08.2020 17:00:00 12,9 8,3 - 21 11 - - WSW 1015,7 30 0,0
03.08.2020 16:00:00 13,4 8,2 - 21 11 - - W 1015,7 10 0,0
03.08.2020 15:00:00 14,5 8,8 - 24 13 - - WSW 1015,7 10 0,0
03.08.2020 14:00:00 13,9 7,8 - 21 11 - - W 1015,6 40 0,0
03.08.2020 13:00:00 13,6 7,3 - 24 13 - - W 1015,8 45 0,0
03.08.2020 12:00:00 13,7 8,3 - 21 11 - - W 1015,7 45 0,0
03.08.2020 11:00:00 13,1 7,8 - 18 10 - - W 1015,7 25 0,0
03.08.2020 10:00:00 12,8 9,0 15,2 16 9 - - W 1015,5 10 0,0
03.08.2020 09:00:00 10,8 9,2 - 15 8 - - W 1015,8 30 0,0
03.08.2020 08:00:00 9,3 8,7 - 13 7 - - WSW 1015,8 35 0,0
03.08.2020 07:00:00 8,1 8,1 - 13 7 - - W 1015,8 40 0,0
03.08.2020 06:00:00 6,1 6,0 - 11 6 - - W 1015,8 17 0,0
03.08.2020 05:00:00 6,2 6,1 - 8 4 - - WNW 1015,5 0,8 0,0
03.08.2020 04:00:00 6,5 6,4 - 9 5 - - W 1015,3 7 0,0
03.08.2020 03:00:00 7,2 6,8 - 11 6 - - W 1015,3 21 0,0
03.08.2020 02:00:00 8,2 8,1 - 5 3 - - W 1015,2 9 0,2
03.08.2020 01:00:00 8,9 8,8 - 9 5 - - W 1015,4 3,4 0,0
03.08.2020 00:00:00 9,1 8,9 - 15 8 - - W 1015,2 9 0,0
02.08.2020 23:00:00 9,2 8,9 - 9 5 - - W 1015,2 13 0,0
02.08.2020 22:00:00 10,3 9,9 - 11 6 - - W 1014,9 14 0,0
02.08.2020 21:00:00 11,0 10,3 - 16 9 - - W 1014,7 21 0,4
02.08.2020 20:00:00 12,3 10,1 - 21 11 - - WSW 1014,4 30 0,0
02.08.2020 19:00:00 13,2 10,6 - 26 14 - - WSW 1014,1 40 0,0
02.08.2020 18:00:00 13,0 10,8 - 22 12 - - W 1014,0 30 0,0
02.08.2020 17:00:00 14,4 11,1 - 26 14 - - W 1013,5 40 0,4
02.08.2020 16:00:00 15,1 11,7 - 31 17 - - W 1013,5 30 0,0
02.08.2020 15:00:00 14,0 10,9 - 22 12 - - W 1013,5 35 0,6
02.08.2020 14:00:00 13,1 11,9 - 24 13 - - W 1013,7 18 0,2
02.08.2020 13:00:00 13,0 11,7 - 18 10 - - W 1013,7 45 1,2
02.08.2020 12:00:00 15,0 12,3 - 18 10 - - W 1013,0 30 0,0
02.08.2020 11:00:00 12,8 10,9 - 18 10 - - W 1013,3 45 0,0
02.08.2020 10:00:00 13,0 11,4 15,7 16 9 - - W 1013,0 40 0,0
02.08.2020 09:00:00 11,8 11,2 - 16 9 - - WSW 1013,1 40 0,0
02.08.2020 08:00:00 10,9 10,7 - 11 6 - - WSW 1013,1 19 0,0
02.08.2020 07:00:00 10,5 10,4 - 15 8 - - W 1013,0 10 0,2
02.08.2020 06:00:00 10,5 10,4 - 16 9 - - W 1012,8 12 0,0
02.08.2020 05:00:00 10,8 10,8 - 21 11 - - W 1012,6 14 2,8
02.08.2020 04:00:00 10,8 10,8 - 22 12 - - WSW 1012,6 1,8 2,0
02.08.2020 03:00:00 11,1 11,0 - 21 11 - - SW 1012,7 7 0,0
02.08.2020 02:00:00 11,3 11,2 - 16 9 - - WSW 1013,0 0,6 0,6
02.08.2020 01:00:00 11,2 11,0 - 16 9 - - SW 1013,5 4,4 2,0
02.08.2020 00:00:00 12,0 10,3 - 15 8 - - WSW 1013,8 17 0,0
01.08.2020 23:00:00 11,8 10,4 - 11 6 - - WSW 1014,1 20 0,0
01.08.2020 22:00:00 12,1 10,1 - 15 8 - - WSW 1014,1 29 0,0
01.08.2020 21:00:00 12,4 9,9 - 15 8 - - WSW 1014,0 30 0,0
01.08.2020 20:00:00 13,0 9,5 - 18 10 - - W 1013,8 35 0,0
01.08.2020 19:00:00 13,9 10,0 - 21 11 - - W 1013,6 35 0,0
01.08.2020 18:00:00 14,7 10,1 - 24 13 - - W 1013,5 28 0,0
01.08.2020 17:00:00 15,7 10,5 - 28 15 - - W 1013,5 30 0,0
01.08.2020 16:00:00 15,9 10,6 - 28 15 - - W 1013,4 19 0,0
01.08.2020 15:00:00 16,4 11,3 - 28 15 - - W 1012,9 30 0,0
01.08.2020 14:00:00 15,5 11,6 - 18 10 - - WSW 1012,9 30 0,0
01.08.2020 13:00:00 14,1 12,0 - 16 9 - - W 1012,8 45 0,0
01.08.2020 12:00:00 15,1 12,4 - 22 12 - - W 1012,5 35 0,0
01.08.2020 11:00:00 14,3 13,2 - 24 13 - - W 1011,9 9 0,0
01.08.2020 10:00:00 14,3 14,2 16,0 21 11 - - WSW 1011,5 0,8 0,4
01.08.2020 09:00:00 14,3 14,1 - 26 14 - - WSW 1011,0 3,5 0,0
01.08.2020 08:00:00 14,3 14,1 - 24 13 - - WSW 1010,6 8 0,0
01.08.2020 07:00:00 14,1 14,1 - 15 8 - - WSW 1010,5 4,3 0,0
01.08.2020 06:00:00 14,0 13,9 - 16 9 - - W 1010,3 6 0,0
01.08.2020 05:00:00 13,9 13,9 - 16 9 - - W 1010,0 0,9 0,0
01.08.2020 04:00:00 14,0 13,9 - 16 9 - - W 1009,8 0,3 0,0
01.08.2020 03:00:00 14,2 14,1 - 15 8 - - W 1009,8 3,9 0,0
01.08.2020 02:00:00 14,6 14,4 - 18 10 - - W 1009,5 1,5 0,0
01.08.2020 01:00:00 14,8 14,1 - 22 12 - - W 1009,3 10 0,0
01.08.2020 00:00:00 15,0 14,2 - 15 8 - - W 1008,9 20 0,4
31.07.2020 23:00:00 16,5 15,7 - 24 13 - - W 1008,9 2,4 0,0
31.07.2020 22:00:00 17,4 16,0 - 18 10 - - W 1008,1 45 0,0
31.07.2020 21:00:00 17,8 15,5 - 16 9 - - W 1008,1 50 0,0
31.07.2020 20:00:00 18,7 13,8 - 18 10 - - WNW 1007,5 35 0,0
31.07.2020 19:00:00 19,5 14,3 - 21 11 - - W 1007,7 27 0,0
31.07.2020 18:00:00 24,1 14,5 - 18 10 - - WNW 1006,8 45 0,0
31.07.2020 17:00:00 25,8 15,6 - 18 10 - - W 1006,7 30 0,0
31.07.2020 16:00:00 27,8 15,5 - 31 17 46 25 SSW 1006,8 30 0,0
31.07.2020 15:00:00 29,2 15,1 - 29 16 50 27 SSE 1006,6 27 0,0
31.07.2020 14:00:00 27,1 15,7 - 22 12 - - ESE 1006,9 50 0,0
31.07.2020 13:00:00 26,3 15,1 - 24 13 - - ESE 1007,6 40 0,0
31.07.2020 12:00:00 26,2 15,1 - 21 11 - - ESE 1008,0 30 0,0
31.07.2020 11:00:00 24,6 14,2 - 15 8 - - ESE 1009,0 40 0,0
31.07.2020 10:00:00 23,1 14,1 14,5 13 7 - - ESE 1009,6 10 0,0
31.07.2020 09:00:00 21,5 13,7 - 8 4 - - SE 1010,4 10 0,0
31.07.2020 08:00:00 16,0 14,4 - 11 6 - - ENE 1011,3 23 0,0
31.07.2020 07:00:00 11,8 11,4 - 8 4 - - NNE 1012,2 12 0,0
31.07.2020 06:00:00 12,1 11,5 - 9 5 - - E 1012,6 14 0,0
31.07.2020 05:00:00 12,0 11,9 - 9 5 - - NE 1012,9 6 0,0
31.07.2020 04:00:00 11,8 11,3 - 9 5 - - E 1013,3 4,0 0,0
31.07.2020 03:00:00 12,6 12,2 - 11 6 - - ENE 1013,7 4,8 0,0
31.07.2020 02:00:00 13,1 12,7 - 9 5 - - NE 1014,3 4,7 0,0
31.07.2020 01:00:00 13,7 13,4 - 13 7 - - ENE 1014,5 5 0,0
31.07.2020 00:00:00 14,0 13,4 - 9 5 - - ENE 1014,9 3,3 0,0
30.07.2020 23:00:00 15,0 13,8 - 9 5 - - ENE 1015,0 8 0,0
30.07.2020 22:00:00 15,4 14,4 - 15 8 - - E 1014,9 14 0,0
30.07.2020 21:00:00 15,6 13,1 - 11 6 - - E 1015,1 50 0,0
30.07.2020 20:00:00 16,7 12,7 - 5 3 - - ESE 1015,1 50 0,0
30.07.2020 19:00:00 17,1 13,7 - 5 3 - - SE 1015,1 45 0,0
30.07.2020 18:00:00 17,1 14,0 - 8 4 - - SSW 1015,5 45 0,0
30.07.2020 17:00:00 16,6 13,2 - 16 9 - - SW 1015,9 10 0,0
30.07.2020 16:00:00 16,6 13,2 - 18 10 - - SSW 1016,0 35 0,0
30.07.2020 15:00:00 16,6 13,6 - 21 11 - - SSW 1015,9 45 0,0
30.07.2020 14:00:00 14,7 13,6 - 13 7 - - WSW 1016,2 10 0,0
30.07.2020 13:00:00 14,0 13,7 - 11 6 - - SSW 1016,6 10 0,4
30.07.2020 12:00:00 13,6 13,4 - 9 5 - - SSE 1016,7 5 0,6
30.07.2020 11:00:00 12,8 12,6 - 9 5 - - SSE 1016,8 5 0,8
30.07.2020 10:00:00 12,2 12,1 14,2 11 6 - - SE 1017,0 3,0 0,2
30.07.2020 09:00:00 10,7 10,6 - 9 5 - - E 1017,6 5 0,2
30.07.2020 08:00:00 9,5 9,3 - 5 3 - - NE 1017,6 10 1,2
30.07.2020 07:00:00 9,1 8,6 - 8 4 - - ENE 1017,5 11 0,2
30.07.2020 06:00:00 8,7 8,0 - 8 4 - - ENE 1017,3 23 0,0
30.07.2020 05:00:00 8,3 7,6 - 5 3 - - NE 1017,6 30 0,0
30.07.2020 04:00:00 8,0 7,2 - 5 3 - - NE 1017,9 28 0,0
30.07.2020 03:00:00 7,8 6,8 - 5 3 - - ENE 1018,0 26 0,0

tt = temperature
td = dewpoint
tt -20cm = temperature -20cm
ff = wind speed
fx = gusts
dd = wind direction
ppp = reduced air pressure
vv = visibility
rr = precipitation

Next stations